Home   Weather   Oceanside   Past weeks

Flag for USA Past Weather in Oceanside, California, USA — Yesterday and Last 2 Weeks

Now
62 °F

Clear.


Feels Like: 62 °F
Forecast: 63 / 81 °F
Wind: 3 mph from Northeast

Location: Oceanside Weather Reporting Station

Current Time: Sep 29, 2016 at 6:48:02 AM

Latest Report: Sep 29, 2016 at 5:52 AM


Visibility: 10 mi

Pressure: 29.96 "Hg

Humidity: 75%

Dew Point: 54 °F

Location of OceansideLocation

Past Weather in Oceanside — Graph

°F

Oceanside Temperature Yesterday

Maximum temperature yesterday: 88 °F (at 1:52 PM)
Minimum temperature yesterday: 62 °F (at 3:52 AM)
Average temperature yesterday: 74 °F

High & Low Weather Summary for the Past Weeks

 TemperatureHumidityPressure
High103 °F (Sep 26, 11:52 AM)97% (Sep 19, 3:52 AM)30.06 "Hg (Sep 19, 3:52 AM)
Low49 °F (Sep 16, 6:52 AM)8% (Sep 26, 11:52 AM)29.81 "Hg (Sep 27, 2:52 PM)
Average69 °F66%29.92 "Hg
* Reported Sep 14 5:52 AM — Sep 29 5:52 AM, Oceanside, Weather by CustomWeather, © 2016

Note: Actual official high and low records may vary slightly from our data, if they occured in-between our weather recording intervals... More about our weather records

Advertising

Oceanside Weather History for the Previous 24 Hours

Scroll right to see more
 ConditionsComfort  
Time TempWeatherWind HumidityBarometerVisibility
5:52 AM
Thu, Sep 29
62 °FClear.3 mph75%29.96 "Hg10 mi
4:52 AM61 °FClear.No wind78%29.96 "Hg10 mi
3:52 AM64 °FClear.No wind73%29.94 "Hg10 mi
2:52 AM64 °FClear.3 mph75%29.94 "Hg10 mi
1:52 AM65 °FClear.3 mph76%29.94 "Hg10 mi
12:52 AM64 °FClear.No wind81%29.94 "Hg10 mi
11:52 PM
Wed, Sep 28
67 °FClear.No wind79%29.95 "Hg10 mi
10:52 PM67 °FClear.3 mph76%29.94 "Hg10 mi
9:52 PM70 °FClear.No wind73%29.94 "Hg10 mi
8:52 PM74 °FClear.7 mph67%29.93 "Hg10 mi
7:52 PM74 °FClear.8 mph67%29.91 "Hg10 mi
6:52 PM74 °FClear.8 mph67%29.89 "Hg10 mi
5:52 PM76 °FSunny.6 mph60%29.87 "Hg10 mi
4:52 PM81 °FSunny.13 mph42%29.86 "Hg10 mi
3:52 PM84 °FSunny.14 mph35%29.86 "Hg10 mi
2:52 PM88 °FSunny.12 mph25%29.86 "Hg10 mi
1:52 PM88 °FSunny.13 mph25%29.86 "Hg10 mi
12:52 PM87 °FSunny.12 mph30%29.88 "Hg10 mi
11:52 AM85 °FSunny.10 mph35%29.90 "Hg10 mi
10:52 AM87 °FSunny.7 mph31%29.90 "Hg10 mi
9:52 AM82 °FSunny.No wind35%29.91 "Hg10 mi
8:52 AM74 °FPartly sunny.No wind48%29.91 "Hg10 mi
7:52 AM68 °FPartly sunny.3 mph59%29.90 "Hg10 mi
6:52 AM63 °FSunny.N/A68%29.89 "Hg10 mi
Weather by CustomWeather, © 2016

See weather overviewHow to use our weather pages